STARLINK-32864, 62862

Orbit data source: Space-Track

STARLINK-32864, 62862 is a payload satellite owned by SpaceX/Seattle (US) in LEO that was launched on Sat, 01 Feb 2025 UTC via an FALCON 9 launch vehicle from the Air Force Western Test Range (AFWTR). Payload-class satellites include a variety of spacecraft equipped with specific instruments for various scientific and technological missions. These include communications satellites like Starlink; space stations such as the ISS; scientific satellites like the Hubble; Earth observation satellites from companies like Planet Labs, Umbra, and HawkEye 360; GPS; miniature CubeSats for education and research; and military/defense satellites.

Loading next visibility...
Identifier
62862, 2025-022J
Orbit
LEO
Country
Flag of USUS
Related business
Manufacturer
SpaceX/Seattle
Mission
Operational Commercial Communications
Bus & Motor
STARLINK V2M, Unknown motor
Mass
730 kg wet, ~700 kg dry
Launch date (UTC)
2025-02-01 (1 year ago)
Launch vehicle
FALCON 9
Launch site
Air Force Western Test Range (AFWTR)
Object type
Payload
Rocket body
Debris
Shape & HBR
Box + 2 Pan, 17.7 m
Radar Cross Section
33.884 m², Large (>1 m²)

Expand to show TLE details & history
Last TLE update: 13 hours ago

TLE from 13 hours ago
0 STARLINK-32864
1 62862U 25022J   26036.63663627  .00035257  00000-0  11959-2 0  9990
2 62862  53.1564 278.4110 0002018 160.1994 199.9085 15.30225794 56992
Epoch: 2026-02-05T15:16Z
TLE epoch observation values (Epoch: 2026-02-05T15:16:45.373Z)
Latitude
-0.00007°
Longitude
-86.56412°
Altitude
477.338 km
Speed
7.628 km/s
True Right ascension
18h 33m 38s
True Declination
0° 00' 00"
Sunlit
Object was in daylight at epoch
Visualization orbit readout
Latitude
Unknown
Longitude
Unknown
Altitude
Unknown
Speed
Unknown
Apparent Right ascension
Unknown
Apparent Declination
Unknown
Sunlit
N/A
Visualization observer readout
Local Sidereal Time
06:08:33
Azimuth
Unknown
Elevation
Unknown
Doppler factor
Unknown
Orbital elements
Apogee altitude
476.778 km
Perigee altitude
474.012 km
Semi-major axis
6,853.532 km
Eccentricity
0.0002
Inclination
53.1564°
RAAN
278.411°
Arg. of periapsis
160.1994°
True anomaly
199.90063°
Mean anomaly
199.9085°
Eccentric anomaly
199.90456°
Mean motion
3.82535 °/min
Orbital period
94.11 mins
BSTAR
0.0011959
Loading maneuver chart data...
Computing Atmospheric mass density...
Loading historical data...
Loading historical data...
Loading historical data...
Loading historical data...
Loading historical data...
Loading historical data...
Loading historical data...

Documentation

Showing up to 5 results
|